• In Österreich
  • Länderverzeichnis
  • Für 7 Tage
  • Wassertemperatur
  • Satellitenkarten
  • Wetterkarte
  • News
  • Widgets
  • user-avatar
    Anmelden

    Stündliche Wetter Maceio

    Heute, 23 September, Sonntag

    Zeit Temperatur Niederschläge Wind Luftdruck Luftfeuchtigkeit
    00:00 +23°C° 0 mm 2 m/S 760 mmHg 94%
    01:00 +23°C° 0 mm 2 m/S 760 mmHg 94%
    02:00 +23°C° 0 mm 2 m/S 760 mmHg 95%
    03:00 +23°C° 0 mm 2 m/S 759 mmHg 95%
    04:00 +21°C° 0 mm 2 m/S 759 mmHg 96%
    05:00 +23°C° 0 mm 2 m/S 759 mmHg 95%
    06:00 +23°C° 0 mm 2 m/S 759 mmHg 94%
    07:00 +23°C° 0 mm 2 m/S 759 mmHg 93%
    08:00 +26°C° 0.1 mm 3 m/S 760 mmHg 83%
    09:00 +28°C° 0.1 mm 3 m/S 760 mmHg 74%
    10:00 +30°C° 0.1 mm 4 m/S 761 mmHg 64%
    11:00 +30°C° 0.1 mm 4 m/S 760 mmHg 63%
    12:00 +32°C° 0.1 mm 4 m/S 760 mmHg 62%
    13:00 +32°C° 0.1 mm 5 m/S 760 mmHg 60%
    14:00 +32°C° 0.1 mm 5 m/S 759 mmHg 62%
    15:00 +32°C° 0.1 mm 5 m/S 759 mmHg 63%
    16:00 +30°C° 0.1 mm 5 m/S 759 mmHg 65%
    17:00 +29°C° 0 mm 4 m/S 759 mmHg 73%
    18:00 +27°C° 0 mm 4 m/S 759 mmHg 81%
    19:00 +25°C° 0 mm 4 m/S 759 mmHg 89%
    20:00 +25°C° 0 mm 4 m/S 760 mmHg 91%
    21:00 +23°C° 0 mm 4 m/S 760 mmHg 93%
    22:00 +23°C° 0 mm 4 m/S 761 mmHg 96%
    23:00 +23°C° 0.1 mm 4 m/S 761 mmHg 96%

    Morgen, 24 September, Montag

    Zeit Temperatur Niederschläge Wind Luftdruck Luftfeuchtigkeit
    00:00 +23°C° 0.1 mm 4 m/S 760 mmHg 96%
    01:00 +24°C° 0.1 mm 3 m/S 760 mmHg 96%
    02:00 +24°C° 0.1 mm 3 m/S 760 mmHg 96%
    03:00 +24°C° 0.1 mm 3 m/S 760 mmHg 96%
    04:00 +22°C° 0.1 mm 3 m/S 759 mmHg 96%
    05:00 +24°C° 0.1 mm 3 m/S 759 mmHg 95%
    06:00 +24°C° 0.1 mm 3 m/S 760 mmHg 94%
    07:00 +25°C° 0.1 mm 3 m/S 760 mmHg 93%
    08:00 +26°C° 0.1 mm 4 m/S 760 mmHg 85%
    09:00 +28°C° 0.1 mm 4 m/S 761 mmHg 77%
    10:00 +30°C° 0.1 mm 4 m/S 761 mmHg 70%
    11:00 +30°C° 0.1 mm 5 m/S 761 mmHg 65%
    12:00 +32°C° 0.1 mm 5 m/S 760 mmHg 60%
    13:00 +33°C° 0.1 mm 5 m/S 760 mmHg 56%
    14:00 +33°C° 0.1 mm 5 m/S 759 mmHg 57%
    15:00 +32°C° 0.1 mm 5 m/S 759 mmHg 59%
    16:00 +32°C° 0.1 mm 5 m/S 759 mmHg 61%
    17:00 +29°C° 0 mm 5 m/S 759 mmHg 69%
    18:00 +27°C° 0 mm 4 m/S 759 mmHg 77%
    19:00 +25°C° 0 mm 4 m/S 759 mmHg 85%
    20:00 +25°C° 0 mm 4 m/S 760 mmHg 88%
    21:00 +23°C° 0 mm 4 m/S 760 mmHg 91%
    22:00 +23°C° 0 mm 4 m/S 761 mmHg 94%
    23:00 +24°C° 0 mm 3 m/S 761 mmHg 95%

    übermorgen, 25 September, Dienstag

    Zeit Temperatur Niederschläge Wind Luftdruck Luftfeuchtigkeit
    00:00 +24°C° 0 mm 3 m/S 760 mmHg 95%
    01:00 +24°C° 0 mm 3 m/S 760 mmHg 95%
    02:00 +24°C° 0.1 mm 3 m/S 760 mmHg 95%
    03:00 +22°C° 0.1 mm 3 m/S 759 mmHg 95%
    04:00 +22°C° 0.1 mm 3 m/S 759 mmHg 96%
    05:00 +24°C° 0.1 mm 3 m/S 759 mmHg 95%
    06:00 +24°C° 0.1 mm 3 m/S 760 mmHg 93%
    07:00 +24°C° 0.1 mm 3 m/S 760 mmHg 92%
    08:00 +26°C° 0.1 mm 3 m/S 761 mmHg 83%
    09:00 +28°C° 0.1 mm 3 m/S 761 mmHg 73%
    10:00 +30°C° 0.1 mm 4 m/S 761 mmHg 63%
    11:00 +32°C° 0 mm 4 m/S 761 mmHg 60%
    12:00 +33°C° 0 mm 4 m/S 760 mmHg 57%
    13:00 +34°C° 0 mm 5 m/S 760 mmHg 53%
    14:00 +33°C° 0 mm 5 m/S 759 mmHg 56%
    15:00 +32°C° 0 mm 5 m/S 759 mmHg 58%
    16:00 +32°C° 0 mm 5 m/S 758 mmHg 60%
    17:00 +29°C° 0 mm 5 m/S 758 mmHg 68%
    18:00 +27°C° 0 mm 4 m/S 759 mmHg 76%
    19:00 +26°C° 0 mm 4 m/S 759 mmHg 84%
    20:00 +25°C° 0.1 mm 4 m/S 760 mmHg 87%
    21:00 +25°C° 0.1 mm 4 m/S 760 mmHg 91%
    22:00 +23°C° 0.1 mm 4 m/S 760 mmHg 94%
    23:00 +23°C° 0.1 mm 4 m/S 760 mmHg 94%

    26 September, Mittwoch

    Zeit Temperatur Niederschläge Wind Luftdruck Luftfeuchtigkeit
    00:00 +23°C° 0.1 mm 4 m/S 760 mmHg 95%
    01:00 +23°C° 0.1 mm 4 m/S 759 mmHg 95%
    02:00 +23°C° 0.1 mm 4 m/S 759 mmHg 95%
    03:00 +23°C° 0.1 mm 4 m/S 759 mmHg 95%
    04:00 +22°C° 0.1 mm 4 m/S 759 mmHg 95%
    05:00 +24°C° 0.1 mm 3 m/S 759 mmHg 94%
    06:00 +24°C° 0.1 mm 3 m/S 760 mmHg 93%
    07:00 +25°C° 0.1 mm 3 m/S 760 mmHg 93%
    08:00 +27°C° 0.1 mm 4 m/S 760 mmHg 82%
    09:00 +29°C° 0.1 mm 4 m/S 761 mmHg 71%
    10:00 +32°C° 0.1 mm 4 m/S 761 mmHg 60%
    11:00 +32°C° 0.1 mm 5 m/S 760 mmHg 58%
    12:00 +33°C° 0.1 mm 5 m/S 760 mmHg 55%
    13:00 +34°C° 0.1 mm 5 m/S 759 mmHg 53%
    14:00 +33°C° 0 mm 5 m/S 759 mmHg 55%
    15:00 +33°C° 0 mm 5 m/S 758 mmHg 57%
    16:00 +32°C° 0 mm 6 m/S 758 mmHg 58%
    17:00 +29°C° 0 mm 5 m/S 758 mmHg 67%
    18:00 +27°C° 0 mm 5 m/S 759 mmHg 75%
    19:00 +26°C° 0 mm 5 m/S 759 mmHg 83%
    20:00 +25°C° 0.1 mm 5 m/S 760 mmHg 87%
    21:00 +25°C° 0.1 mm 5 m/S 760 mmHg 91%
    22:00 +23°C° 0.1 mm 5 m/S 760 mmHg 95%
    23:00 +23°C° 0.1 mm 5 m/S 760 mmHg 95%

    27 September, Donnerstag

    Zeit Temperatur Niederschläge Wind Luftdruck Luftfeuchtigkeit
    00:00 +23°C° 0.1 mm 4 m/S 760 mmHg 96%
    01:00 +23°C° 0.1 mm 4 m/S 759 mmHg 96%
    02:00 +22°C° 0 mm 4 m/S 759 mmHg 96%
    03:00 +22°C° 0 mm 4 m/S 759 mmHg 96%
    04:00 +22°C° 0 mm 4 m/S 759 mmHg 96%
    05:00 +22°C° 0 mm 4 m/S 759 mmHg 95%
    06:00 +23°C° 0 mm 4 m/S 760 mmHg 94%
    07:00 +23°C° 0 mm 4 m/S 760 mmHg 94%
    08:00 +26°C° 0 mm 4 m/S 760 mmHg 82%
    09:00 +28°C° 0 mm 5 m/S 761 mmHg 71%
    10:00 +30°C° 0 mm 5 m/S 761 mmHg 60%
    11:00 +32°C° 0 mm 5 m/S 760 mmHg 57%
    12:00 +33°C° 0 mm 5 m/S 760 mmHg 53%
    13:00 +34°C° 0 mm 5 m/S 759 mmHg 50%
    14:00 +34°C° 0 mm 5 m/S 759 mmHg 52%
    15:00 +33°C° 0 mm 5 m/S 759 mmHg 54%
    16:00 +33°C° 0 mm 5 m/S 758 mmHg 56%
    17:00 +30°C° 0 mm 5 m/S 759 mmHg 64%
    18:00 +28°C° 0 mm 5 m/S 759 mmHg 72%
    19:00 +26°C° 0 mm 4 m/S 760 mmHg 80%
    20:00 +25°C° 0 mm 4 m/S 760 mmHg 84%
    21:00 +23°C° 0 mm 4 m/S 760 mmHg 89%
    22:00 +23°C° 0 mm 4 m/S 761 mmHg 94%
    23:00 +23°C° 0 mm 4 m/S 760 mmHg 94%

    28 September, Freitag

    Zeit Temperatur Niederschläge Wind Luftdruck Luftfeuchtigkeit
    00:00 +22°C° 0 mm 4 m/S 760 mmHg 95%
    01:00 +22°C° 0 mm 4 m/S 760 mmHg 95%
    02:00 +22°C° 0 mm 4 m/S 760 mmHg 96%
    03:00 +22°C° 0 mm 3 m/S 760 mmHg 96%
    04:00 +22°C° 0 mm 3 m/S 759 mmHg 96%
    05:00 +22°C° 0 mm 4 m/S 760 mmHg 95%
    06:00 +22°C° 0 mm 4 m/S 760 mmHg 93%
    07:00 +23°C° 0 mm 4 m/S 761 mmHg 92%
    08:00 +26°C° 0.1 mm 5 m/S 761 mmHg 83%
    09:00 +28°C° 0.1 mm 5 m/S 761 mmHg 73%
    10:00 +32°C° 0.1 mm 6 m/S 761 mmHg 63%
    11:00 +32°C° 0.1 mm 6 m/S 761 mmHg 61%
    12:00 +33°C° 0.1 mm 6 m/S 760 mmHg 60%
    13:00 +33°C° 0.1 mm 6 m/S 760 mmHg 58%
    14:00 +33°C° 0 mm 6 m/S 759 mmHg 60%
    15:00 +32°C° 0 mm 6 m/S 759 mmHg 62%
    16:00 +30°C° 0 mm 6 m/S 759 mmHg 64%
    17:00 +29°C° 0 mm 6 m/S 759 mmHg 71%
    18:00 +27°C° 0 mm 5 m/S 759 mmHg 77%
    19:00 +26°C° 0 mm 5 m/S 759 mmHg 84%
    20:00 +25°C° 0 mm 5 m/S 760 mmHg 88%
    21:00 +23°C° 0 mm 5 m/S 760 mmHg 91%
    22:00 +23°C° 0 mm 5 m/S 760 mmHg 95%
    23:00 +23°C° 0 mm 4 m/S 760 mmHg 95%
    Mehr zeigen